Regional Weather Roundup
Issued by NWS

Home | Current Version | Previous Version | Text Only | Print | Product List | Glossary Off
Versions: 1 2 3 4 5 6 7 8 9 10 11 12 13 14 15 16 17 18 19 20 21 22 23 24 25 26 27 28 29 30 31 32 33 34 35 36 37 38 39 40 41 42 43 44 45 46 47 48 49 50

000
ASUS43 KFSD 052002
RWRSD

WEATHER ROUNDUP FOR SOUTH DAKOTA
NATIONAL WEATHER SERVICE SIOUX FALLS SD
200 PM CST THU MAR 05 2015

NOTE: "FAIR" INDICATES FEW OR NO CLOUDS BELOW 12,000 FEET WITH NO
SIGNIFICANT WEATHER AND/OR OBSTRUCTIONS TO VISIBILITY.


SDZ001>005-009-010-012>017-052100-
NORTHWEST AND NORTH CENTRAL SOUTH DAKOTA

CITY           SKY/WX    TMP DP  RH WIND       PRES   REMARKS
BUFFALO          N/A     44  12  27 NW32G45   29.98
FAITH            N/A     41  11  29 SW12      30.06
MOBRIDGE       SUNNY     34   6  31 S15       30.09  WCI  24
$$

SDZ012>016-024>037-041>051-057-063-072>074-052100-
SOUTHWEST AND SOUTH CENTRAL SOUTH DAKOTA

CITY           SKY/WX    TMP DP  RH WIND       PRES   REMARKS
RAPID CTY ARPT CLOUDY    42  14  32 CALM      30.09
PIERRE         MOSUNNY   27  12  53 S13       30.18  WCI  16
CUSTER         SUNNY     34  10  37 W14G25    30.06  WCI  25
ELLSWORTH AFB  MOSUNNY   44  17  33 N18       30.07
PHILIP         CLOUDY    31  17  56 SW12      30.14  WCI  22
PINE RIDGE     SUNNY     34  17  50 SW13      30.17  WCI  25
SPEARFISH      FAIR      37  12  35 W21G28    30.09F
WINNER         FAIR      35  11  36 S12       30.19  WCI  27
$$

SDZ004>011-016>023-039-040-052100-
NORTHEAST SOUTH DAKOTA

CITY           SKY/WX    TMP DP  RH WIND       PRES   REMARKS
ABERDEEN       SUNNY     20   9  62 S15       30.25  WCI   6
WATERTOWN      SUNNY     17   6  62 S14       30.26  WCI   3
SISSETON         N/A     19   7  59 S14       30.28  WCI   6
$$

SDZ017-020-022-023-036>040-048>070-052100-
SOUTHEAST SOUTH DAKOTA

CITY           SKY/WX    TMP DP  RH WIND       PRES   REMARKS
SIOUX FALLS    SUNNY     23   5  46 SW10G21   30.34  WCI  12
HURON          SUNNY     28   9  44 S17G24    30.26  WCI  16
MITCHELL       SUNNY     30   7  37 SW15      30.29  WCI  19
YANKTON        SUNNY     30   3  31 SW13G22   30.35F WCI  20
$$

ABBREVIATIONS USED IN REMARKS
   TC - TEMPERATURE IN CELSIUS
  WCI - WIND CHILL INDEX
   HX - HEAT INDEX
  VSB - VISIBILITY



USA.gov is the U.S. government's official web portal to all federal, state and local government web resources and services.